| time (UTC) | temp C | wind direction | speed KPH | gust KPH | rain 1hr cm | rain 24hr cm | rain mn cm | humidity % | barometer mb |
| 20260507094551 | 10 | 279 | 0.0 | 6.4 | 0.00 | 0.00 | 0.00 | 80 | 1019.2 |
| 20260507093050 | 10 | 17 | 1.6 | 4.8 | 0.00 | 0.00 | 0.00 | 80 | 1019.3 |
| 20260507091549 | 10 | 254 | 0.0 | 3.2 | 0.00 | 0.00 | 0.00 | 80 | 1019.5 |
| 20260507090055 | 10 | 254 | 1.6 | 6.4 | 0.00 | 0.00 | 0.00 | 80 | 1019.5 |
| 20260507084553 | 10 | 9 | 0.0 | 8.0 | 0.00 | 0.00 | 0.00 | 80 | 1019.5 |
| 20260507083047 | 10 | 61 | 0.0 | 8.0 | 0.00 | 0.00 | 0.00 | 80 | 1019.5 |
| 20260507081545 | 10 | 323 | 0.0 | 1.6 | 0.00 | 0.00 | 0.00 | 81 | 1019.5 |
| 20260507080052 | 10 | 38 | 0.0 | 4.8 | 0.00 | 0.00 | 0.00 | 82 | 1019.5 |
| 20260507074544 | 10 | 315 | 0.0 | 6.4 | 0.00 | 0.00 | 0.00 | 82 | 1019.4 |
| 20260507073045 | 10 | 360 | 0.0 | 16.1 | 0.00 | 0.00 | 0.00 | 82 | 1019.4 |
| 20260507071542 | 10 | 72 | 1.6 | 9.7 | 0.00 | 0.00 | 0.00 | 82 | 1019.3 |
| 20260507070059 | 10 | 18 | 3.2 | 16.1 | 0.00 | 0.00 | 0.00 | 82 | 1019.3 |
| 20260507064548 | 10 | 37 | 6.4 | 14.5 | 0.00 | 0.00 | 0.00 | 82 | 1019.3 |
| 20260507063038 | 10 | 24 | 4.8 | 16.1 | 0.00 | 0.00 | 0.00 | 83 | 1019.3 |
| 20260507061535 | 11 | 346 | 4.8 | 16.1 | 0.00 | 0.00 | 0.00 | 84 | 1019.3 |
| 20260507060033 | 11 | 57 | 1.6 | 8.0 | 0.00 | 0.00 | 0.00 | 85 | 1019.3 |
| 20260507054537 | 11 | 44 | 4.8 | 14.5 | 0.00 | 0.00 | 0.00 | 85 | 1019.3 |
| 20260507053033 | 11 | 44 | 4.8 | 16.1 | 0.00 | 0.00 | 0.00 | 85 | 1019.3 |
| 20260507051528 | 11 | 49 | 4.8 | 16.1 | 0.00 | 0.00 | 0.00 | 85 | 1019.2 |
| 20260507050039 | 11 | 44 | 6.4 | 17.7 | 0.00 | 0.00 | 0.00 | 84 | 1019.3 |
| 20260507044525 | 11 | 28 | 3.2 | 16.1 | 0.00 | 0.00 | 0.00 | 84 | 1019.3 |
| 20260507043025 | 11 | 55 | 6.4 | 17.7 | 0.00 | 0.00 | 0.00 | 83 | 1019.2 |
| 20260507041524 | 12 | 102 | 4.8 | 17.7 | 0.00 | 0.00 | 0.00 | 83 | 1019.1 |
| 20260507040025 | 12 | 14 | 6.4 | 16.1 | 0.00 | 0.00 | 0.00 | 82 | 1018.9 |
| 20260507034523 | 12 | 67 | 11.3 | 19.3 | 0.00 | 0.00 | 0.00 | 82 | 1018.7 |
| 20260507033022 | 12 | 19 | 3.2 | 16.1 | 0.00 | 0.00 | 0.00 | 82 | 1018.5 |
| 20260507031520 | 12 | 56 | 6.4 | 20.9 | 0.00 | 0.00 | 0.00 | 82 | 1018.3 |
| 20260507030019 | 13 | 17 | 9.7 | 19.3 | 0.00 | 0.00 | 0.00 | 81 | 1018.2 |
| 20260507024519 | 13 | 9 | 6.4 | 22.5 | 0.00 | 0.00 | 0.00 | 81 | 1018.0 |
| 20260507023017 | 13 | 37 | 4.8 | 20.9 | 0.00 | 0.00 | 0.00 | 81 | 1017.9 |
| 20260507021521 | 13 | 28 | 11.3 | 27.4 | 0.00 | 0.00 | 0.00 | 80 | 1017.9 |
| 20260507020018 | 13 | 360 | 6.4 | 22.5 | 0.00 | 0.00 | 0.00 | 80 | 1017.8 |
| 20260507014517 | 14 | 355 | 9.7 | 24.1 | 0.00 | 0.00 | 0.00 | 78 | 1018.0 |
| 20260507013016 | 15 | 351 | 4.8 | 25.7 | 0.00 | 0.00 | 0.00 | 77 | 1018.1 |
| 20260507011520 | 15 | 40 | 11.3 | 24.1 | 0.00 | 0.00 | 0.00 | 75 | 1018.0 |
| 20260507010020 | 15 | 9 | 8.0 | 19.3 | 0.00 | 0.00 | 0.00 | 74 | 1018.1 |
| 20260507004512 | 16 | 22 | 11.3 | 20.9 | 0.00 | 0.00 | 0.00 | 73 | 1018.1 |
| 20260507003010 | 16 | 57 | 4.8 | 17.7 | 0.00 | 0.00 | 0.00 | 74 | 1017.9 |
| 20260507001509 | 17 | 15 | 8.0 | 19.3 | 0.00 | 0.00 | 0.00 | 73 | 1017.9 |
| 20260507000009 | 17 | 46 | 4.8 | 16.1 | 0.00 | 0.00 | 0.00 | 74 | 1017.9 |
| 20260506234508 | 17 | 62 | 3.2 | 16.1 | 0.00 | 0.00 | 0.00 | 73 | 1018.0 |
| 20260506233007 | 17 | 59 | 0.0 | 8.0 | 0.00 | 0.00 | 0.00 | 72 | 1017.9 |
| 20260506231507 | 17 | 92 | 1.6 | 9.7 | 0.00 | 0.00 | 0.00 | 71 | 1018.0 |
| 20260506230007 | 17 | 94 | 1.6 | 9.7 | 0.00 | 0.00 | 0.00 | 71 | 1018.2 |
| 20260506224505 | 17 | 94 | 0.0 | 11.3 | 0.00 | 0.00 | 0.00 | 73 | 1018.4 |
| 20260506223004 | 17 | 95 | 1.6 | 12.9 | 0.00 | 0.00 | 0.00 | 72 | 1018.6 |
| 20260506221505 | 17 | 48 | 1.6 | 11.3 | 0.00 | 0.00 | 0.00 | 71 | 1018.5 |
| 20260506220002 | 17 | 169 | 0.0 | 6.4 | 0.00 | 0.00 | 0.00 | 75 | 1018.6 |
| 20260506214602 | 17 | 136 | 0.0 | 6.4 | 0.00 | 0.00 | 0.00 | 74 | 1018.5 |
| 20260506213100 | 16 | 196 | 1.6 | 8.0 | 0.00 | 0.00 | 0.00 | 77 | 1018.6 |
| 20260506211557 | 16 | 175 | 0.0 | 4.8 | 0.00 | 0.00 | 0.00 | 77 | 1018.8 |
| 20260506210053 | 16 | 76 | 0.0 | 6.4 | 0.00 | 0.00 | 0.00 | 78 | 1019.0 |
| 20260506204550 | 16 | 88 | 0.0 | 4.8 | 0.00 | 0.00 | 0.00 | 79 | 1018.9 |
| 20260506203049 | 15 | 105 | 1.6 | 4.8 | 0.00 | 0.00 | 0.00 | 80 | 1018.9 |
| 20260506201545 | 15 | 101 | 0.0 | 3.2 | 0.00 | 0.00 | 0.00 | 83 | 1018.8 |
| 20260506200046 | 14 | 72 | 0.0 | 4.8 | 0.00 | 0.00 | 0.00 | 82 | 1019.0 |
| 20260506194544 | 13 | 84 | 4.8 | 9.7 | 0.00 | 0.00 | 0.00 | 83 | 1019.2 |
| 20260506193049 | 14 | 73 | 1.6 | 9.7 | 0.00 | 0.00 | 0.00 | 84 | 1019.3 |
| 20260506191540 | 13 | 86 | 0.0 | 6.4 | 0.00 | 0.00 | 0.00 | 85 | 1019.2 |
| 20260506190040 | 14 | 95 | 1.6 | 4.8 | 0.00 | 0.00 | 0.00 | 84 | 1019.1 |
| 20260506184540 | 13 | 59 | 0.0 | 4.8 | 0.00 | 0.00 | 0.00 | 85 | 1019.1 |
| 20260506183036 | 13 | 196 | 0.0 | 9.7 | 0.00 | 0.00 | 0.00 | 86 | 1018.9 |
| 20260506181543 | 13 | 144 | 0.0 | 1.6 | 0.00 | 0.00 | 0.00 | 88 | 1019.1 |
| 20260506180036 | 12 | 142 | 0.0 | 0.0 | 0.00 | 0.00 | 0.00 | 87 | 1019.0 |
| 20260506174537 | 12 | 142 | 0.0 | 0.0 | 0.00 | 0.00 | 0.00 | 88 | 1019.1 |
| 20260506173058 | 12 | 141 | 0.0 | 3.2 | 0.00 | 0.00 | 0.00 | 88 | 1018.9 |
| 20260506171541 | 12 | 157 | 0.0 | 4.8 | 0.00 | 0.00 | 0.00 | 89 | 1018.8 |
| 20260506170048 | 12 | 74 | 0.0 | 0.0 | 0.00 | 0.00 | 0.00 | 89 | 1018.8 |
| 20260506164533 | 12 | 74 | 0.0 | 0.0 | 0.00 | 0.00 | 0.00 | 89 | 1018.9 |
| 20260506163035 | 12 | 74 | 0.0 | 4.8 | 0.00 | 0.00 | 0.00 | 90 | 1018.8 |
| 20260506161532 | 11 | 51 | 1.6 | 8.0 | 0.00 | 0.00 | 0.00 | 90 | 1018.7 |
| 20260506160031 | 11 | 40 | 1.6 | 8.0 | 0.00 | 0.00 | 0.00 | 91 | 1018.6 |
| 20260506154530 | 11 | 73 | 3.2 | 12.9 | 0.00 | 0.00 | 0.00 | 91 | 1018.3 |
| 20260506153028 | 11 | 85 | 1.6 | 6.4 | 0.00 | 0.00 | 0.00 | 91 | 1018.2 |
| 20260506151628 | 11 | 5 | 3.2 | 9.7 | 0.00 | 0.00 | 0.00 | 91 | 1018.8 |
| 20260506150027 | 11 | 38 | 6.4 | 14.5 | 0.00 | 0.00 | 0.00 | 91 | 1018.7 |
| 20260506144524 | 11 | 5 | 4.8 | 12.9 | 0.00 | 0.00 | 0.00 | 91 | 1018.4 |
| 20260506143026 | 11 | 360 | 4.8 | 9.7 | 0.00 | 0.00 | 0.00 | 91 | 1018.3 |
| 20260506141519 | 11 | 60 | 6.4 | 14.5 | 0.00 | 0.00 | 0.00 | 91 | 1017.9 |
| 20260506140020 | 11 | 84 | 1.6 | 6.4 | 0.00 | 0.00 | 0.00 | 91 | 1017.9 |
| 20260506134517 | 11 | 80 | 3.2 | 9.7 | 0.00 | 0.00 | 0.00 | 91 | 1017.8 |
| 20260506133015 | 11 | 59 | 4.8 | 8.0 | 0.00 | 0.00 | 0.00 | 91 | 1017.7 |
| 20260506131514 | 11 | 53 | 1.6 | 4.8 | 0.00 | 0.00 | 0.00 | 91 | 1017.5 |
| 20260506130012 | 11 | 50 | 0.0 | 3.2 | 0.00 | 0.00 | 0.00 | 91 | 1017.3 |
| 20260506124512 | 11 | 29 | 0.0 | 0.0 | 0.00 | 0.00 | 0.00 | 91 | 1017.3 |
| 20260506123011 | 11 | 26 | 0.0 | 4.8 | 0.00 | 0.00 | 0.00 | 91 | 1017.1 |
| 20260506121509 | 11 | 40 | 1.6 | 8.0 | 0.00 | 0.00 | 0.00 | 91 | 1017.3 |
| 20260506120008 | 11 | 12 | 1.6 | 9.7 | 0.00 | 0.00 | 0.00 | 90 | 1017.2 |
| 20260506114506 | 11 | 13 | 4.8 | 9.7 | 0.00 | 0.00 | 0.00 | 90 | 1017.1 |
| 20260506113004 | 11 | 27 | 3.2 | 8.0 | 0.00 | 0.00 | 0.00 | 89 | 1016.9 |
| 20260506111503 | 11 | 19 | 0.0 | 6.4 | 0.00 | 0.00 | 0.00 | 89 | 1016.9 |
| 20260506104634 | 12 | 21 | 4.8 | 9.7 | 0.00 | 0.00 | 0.00 | 89 | 1016.3 |
| 20260506103100 | 12 | 360 | 6.4 | 12.9 | 0.00 | 0.00 | 0.00 | 89 | 1016.2 |
| 20260506101555 | 12 | 40 | 6.4 | 12.9 | 0.00 | 0.00 | 0.00 | 89 | 1016.1 |
| 20260506100054 | 12 | 32 | 4.8 | 16.1 | 0.00 | 0.00 | 0.00 | 89 | 1015.9 |